Regional Weather Roundup
Issued by NWS

Home | Current Version | Previous Version | Graphics & Text | Print | Product List | Glossary On
Versions: 1 2 3 4 5 6 7 8 9 10 11 12 13 14 15 16 17 18 19 20 21 22 23 24 25 26 27 28 29 30 31 32 33 34 35 36 37 38 39 40 41 42 43 44 45 46 47 48 49 50
000
ASUS43 KLOT 292302
RWRIL

ILLINOIS REGIONAL WEATHER ROUNDUP
NATIONAL WEATHER SERVICE CHICAGO/ROMEOVILLE IL
600 PM CDT FRI MAY 29 2015

NOTE: "FAIR" INDICATES FEW OR NO CLOUDS BELOW 12,000 FEET WITH NO
SIGNIFICANT WEATHER AND/OR OBSTRUCTIONS TO VISIBILITY.

* THESE STATIONS ARE NOT UNDER NWS QUALITY CONTROL. THEY ALSO MAY NOT
  REPORT WEATHER SUCH AS PRECIPITATION OR FOG.

ILZ001-002-007-009-015-016-024-300000-
NORTHWEST ILLINOIS

CITY           SKY/WX    TMP DP  RH WIND       PRES   REMARKS
MOLINE         PTSUNNY   78  64  61 W9        29.89S HX  80
STERLING*      MOSUNNY   81  66  61 SW12      29.89S HX  83
$$

ILZ003-004-008-010-011-017-018-300000-
NORTH CENTRAL ILLINOIS

CITY           SKY/WX    TMP DP  RH WIND       PRES   REMARKS
ROCKFORD       PTSUNNY   79  64  60 W6        29.90F HX  81
$$

ILZ005-006-012>014-019>023-300000-
NORTHEAST ILLINOIS

CITY           SKY/WX    TMP DP  RH WIND       PRES   REMARKS
CHICAGO-OHARE  PTSUNNY   80  64  58 SW13G23   29.89F HX  82
CHICAGO-MIDWAY PTSUNNY   82  65  56 SW16G23   29.89F HX  84
AURORA         PTSUNNY   82  62  50 SW13G22   29.90F HX  83
WAUKEGAN       MOSUNNY   78  68  71 VRB5      29.88F HX  80
DUPAGE AIRPORT MOSUNNY   82  62  50 SW18G25   29.90S HX  83
WHEELING       MOSUNNY   79  67  66 S10       29.90F HX  81
NORTHERLY ISL    N/A     80  64  58 S10         N/A  HX  82
$$

LMZ740>746-300000-
SOUTHERN LAKE MICHIGAN

STATION/POSITION SKY/WX   TEMP    WIND        PRES    VSBY  WAVE
                          AIR SEA DIR/SP/G                  HT/PER
                          (F)     (DEG/KT/KT) (MB)    (MI)  (FT/S)
SOUTHERN BUOY              48 38  130/ 10/ 12 1013.3          0
HARRISON CRIB              77     200/ 18/ 20   N/A
BURNHAM HARBOR             81     210/  8/ 14   N/A
CALUMET HARBOR             77     200/  5/  7   N/A
BURNS HARBOR               82     210/ 16     1012.9F
MICHIGAN CITY              82     180/ 12/ 17   N/A
MICHIGAN CITY 6N           71 57  200/  8/ 10   N/A           1/ 2
ST. JOSEPH                 71 61  120/  2/  6   N/A           1
$$

ILZ025>027-034>036-040-047-049-050-058-095>099-300000-
WEST-CENTRAL ILLINOIS

CITY           SKY/WX    TMP DP  RH WIND       PRES   REMARKS
QUINCY         CLOUDY    74  66  76 SW9       29.94F
$$

ILZ028>032-037-038-041>044-048-051>054-059>061-300000-
CENTRAL ILLINOIS

CITY           SKY/WX    TMP DP  RH WIND       PRES   REMARKS
DECATUR        CLOUDY    82  67  60 S15       29.96S HX  84
PEORIA         MOSUNNY   83  65  54 SW9       29.92S HX  85
SPRINGFIELD    CLOUDY    72  67  84 SE3       29.96F
TAYLORVILLE    NOT AVBL
$$

ILZ033-039-045-046-055>057-062-063-300000-
EAST-CENTRAL ILLINOIS

CITY           SKY/WX    TMP DP  RH WIND       PRES   REMARKS
CHAMPAIGN      MOSUNNY   83  63  50 S16G25    29.96S HX  84
MATTOON        PTSUNNY   79  66  64 S7        29.97S HX  81
$$

ILZ079-100>102-300000-
SOUTHWEST ILLINOIS

CITY           SKY/WX    TMP DP  RH WIND       PRES   REMARKS
BELLEVILLE     CLOUDY    72  72 100 SE6       29.96F
CAHOKIA*       CLOUDY    75  70  84 S6        29.96F
$$

ILZ064>066-069>071-074>076-080>082-084>086-088>090-092>094-300000-
SOUTH-CENTRAL ILLINOIS

CITY           SKY/WX    TMP DP  RH WIND       PRES   REMARKS
CARBONDALE     MOSUNNY   82  66  58 S10       29.98F HX  84
MARION         PTSUNNY   82  68  61 S14       29.99F HX  85
MT. VERNON     CLOUDY    72  63  73 N6        30.02R
$$

ILZ067-068-072-073-078-083-087-091-300000-
SOUTHEAST ILLINOIS

CITY           SKY/WX    TMP DP  RH WIND       PRES   REMARKS
LAWRENCEVILLE  MOSUNNY   84  66  54 S15       30.00S HX  86
$$

ABBREVIATIONS USED IN REMARKS
   TC - TEMPERATURE IN CELSIUS
  WCI - WIND CHILL INDEX
   HX - HEAT INDEX
  VSB - VISIBILITY
$$




USA.gov is the U.S. government's official web portal to all federal, state and local government web resources and services.